K8JWL-13 Weather Reports


Display with metric or nautical units.
time (UTC)temp
F
wind
direction
speed
MPH
gust
MPH
rain 1hr
in
rain 24hr
in
rain mn
in
humidity
%
barometer
mb
20260510170253 63 350 1.0 0.0 158.85 0.00 0.00 50 1018.0
20260510165754 63 330 7.0 0.0 158.85 0.00 0.00 51 1018.0
20260510165252 63 34 2.0 0.0 158.85 0.00 0.00 49 1018.0
20260510164753 62 291 2.0 0.0 158.85 0.00 0.00 53 1018.0
20260510162753 62 205 3.0 0.0 158.85 0.00 0.00 54 1018.0
20260510162252 61 1 4.0 0.0 158.85 0.00 0.00 55 1018.1
20260510161753 61 27 5.0 0.0 158.85 0.00 0.00 55 1018.1
20260510161252 61 115 3.0 0.0 158.85 0.00 0.00 56 1018.1
20260510160252 61 6 5.0 0.0 158.85 0.00 0.00 57 1017.8
20260510160031 60 7 2.0 0.0 158.85 0.00 0.00 53 1017.9
20260510155752 60 7 2.0 0.0 158.85 0.00 0.00 53 1017.9
20260510155252 61 1 3.0 0.0 158.85 0.00 0.00 55 1017.7
20260510154752 61 10 8.0 0.0 158.85 0.00 0.00 57 1017.8
20260510154446 60 23 3.0 0.0 158.85 0.00 0.00 59 1017.8
20260510154252 60 23 3.0 0.0 158.85 0.00 0.00 59 1017.8
20260510153752 60 51 5.0 0.0 158.85 0.00 0.00 59 1017.6
20260510153251 60 350 2.0 0.0 158.85 0.00 0.00 56 1017.6
20260510152752 60 345 4.0 0.0 158.85 0.00 0.00 55 1017.5
20260510152252 60 148 3.0 0.0 158.85 0.00 0.00 58 1017.5
20260510150751 59 45 6.0 0.0 158.85 0.00 0.00 58 1017.4
20260510150251 59 10 4.0 0.0 158.85 0.00 0.00 57 1017.2
20260510145752 59 148 1.0 0.0 158.85 0.00 0.00 56 1017.1
20260510144752 59 359 3.0 0.0 158.85 0.00 0.00 60 1017.0
20260510144256 59 321 8.0 0.0 158.85 0.00 0.00 58 1017.0
20260510143752 58 8 4.0 0.0 158.85 0.00 0.00 55 1017.0
20260510143657 58 20 2.0 0.0 158.85 0.00 0.00 59 1016.9
20260510143251 58 332 2.0 0.0 158.85 0.00 0.00 56 1017.0
20260510142752 58 20 2.0 0.0 158.85 0.00 0.00 59 1016.9
20260510141751 58 149 5.0 0.0 158.85 0.00 0.00 59 1016.6
20260510141702 58 93 1.0 0.0 158.85 0.00 0.00 60 1016.4
20260510141339 58 93 1.0 0.0 158.85 0.00 0.00 60 1016.4
20260510141252 58 93 1.0 0.0 158.85 0.00 0.00 60 1016.4
20260510141102 57 18 1.0 0.0 158.85 0.00 0.00 59 1016.5
20260510140751 57 18 1.0 0.0 158.85 0.00 0.00 59 1016.5
20260510135754 57 23 3.0 0.0 158.85 0.00 0.00 60 1016.4
20260510135324 57 7 5.0 0.0 158.85 0.00 0.00 61 1016.5
20260510135251 57 7 5.0 0.0 158.85 0.00 0.00 61 1016.5
20260510135015 57 0 4.0 0.0 158.85 0.00 0.00 62 1016.4
20260510134751 57 0 4.0 0.0 158.85 0.00 0.00 62 1016.4
20260510134252 57 349 4.0 0.0 158.85 0.00 0.00 61 1016.3
20260510133754 56 343 4.0 0.0 158.85 0.00 0.00 62 1016.3
20260510133251 57 357 4.0 0.0 158.85 0.00 0.00 63 1016.1
20260510132754 56 15 7.0 0.0 158.85 0.00 0.00 62 1016.2
20260510131751 56 20 0.0 0.0 158.85 0.00 0.00 63 1016.0
20260510130251 56 352 5.0 0.0 158.85 0.00 0.00 61 1016.0
20260510125752 56 31 2.0 0.0 158.85 0.00 0.00 64 1015.9
20260510125251 55 82 4.0 0.0 158.85 0.00 0.00 64 1015.9
20260510124751 55 63 4.0 0.0 158.85 0.00 0.00 63 1016.0
20260510124514 55 122 2.0 0.0 158.85 0.00 0.00 64 1015.8
20260510124252 55 122 2.0 0.0 158.85 0.00 0.00 64 1015.8
20260510123751 55 117 5.0 0.0 158.85 0.00 0.00 63 1015.9
20260510123251 55 165 4.0 0.0 158.85 0.00 0.00 64 1015.7
20260510121751 55 8 3.0 0.0 158.85 0.00 0.00 62 1015.4
20260510121251 55 4 2.0 0.0 158.85 0.00 0.00 64 1015.2
20260510120752 55 45 0.0 0.0 158.85 0.00 0.00 65 1015.1
20260510115251 55 45 1.0 0.0 158.85 0.00 0.00 67 1015.0
20260510114251 55 59 1.0 0.0 158.85 0.00 0.00 67 1015.0
20260510114007 55 326 0.0 0.0 158.85 0.00 0.00 68 1014.7
20260510113751 55 3 0.0 0.0 158.85 0.00 0.00 69 1014.8
20260510113709 55 49 0.0 0.0 158.85 0.00 0.00 69 1014.3
20260510113251 55 326 0.0 0.0 158.85 0.00 0.00 68 1014.7
20260510112753 55 10 0.0 0.0 158.85 0.00 0.00 68 1014.6
20260510111751 55 49 0.0 0.0 158.85 0.00 0.00 69 1014.3
20260510111252 55 83 1.0 0.0 158.85 0.00 0.00 70 1014.3
20260510105752 55 328 3.0 0.0 158.85 0.00 0.00 69 1014.3
20260510104752 56 6 0.0 0.0 158.85 0.00 0.00 70 1013.8
20260510104251 56 53 1.0 0.0 158.85 0.00 0.00 70 1013.7
20260510103252 56 4 2.0 0.0 158.85 0.00 0.00 70 1013.8
20260510102251 57 340 4.0 0.0 158.85 0.00 0.00 72 1013.6
20260510101751 57 14 4.0 0.0 158.85 0.00 0.00 72 1013.6
20260510101253 57 24 2.0 0.0 158.85 0.00 0.00 71 1013.6
20260510101013 58 305 2.0 0.0 158.85 0.00 0.00 70 1013.5
20260510100751 58 305 2.0 0.0 158.85 0.00 0.00 70 1013.5
20260510095751 58 354 0.0 0.0 158.85 0.00 0.00 68 1013.6
20260510094252 58 8 1.0 0.0 158.85 0.00 0.00 67 1012.8
20260510094010 58 309 0.0 0.0 158.85 0.00 0.00 68 1012.6
20260510093751 58 309 0.0 0.0 158.85 0.00 0.00 68 1012.6
20260510093251 58 62 1.0 0.0 158.85 0.00 0.00 67 1012.6
20260510092751 58 311 3.0 0.0 158.85 0.00 0.00 67 1012.6
20260510091751 58 354 4.0 0.0 158.85 0.00 0.00 66 1012.7
20260510091251 58 300 4.0 0.0 158.85 0.00 0.00 65 1012.2
20260510090751 59 39 3.0 0.0 158.85 0.00 0.00 65 1012.3
20260510090251 59 169 2.0 0.0 158.85 0.00 0.00 65 1012.2
20260510090011 59 15 5.0 0.0 158.85 0.00 0.00 65 1012.1
20260510085751 59 15 5.0 0.0 158.85 0.00 0.00 65 1012.1
20260510085251 59 20 4.0 0.0 158.85 0.00 0.00 64 1012.1
20260510084751 59 65 1.0 0.0 158.85 0.00 0.00 65 1011.9
20260510084015 59 17 4.0 0.0 158.85 0.00 0.00 64 1011.7
20260510083753 59 17 4.0 0.0 158.85 0.00 0.00 64 1011.7
20260510083258 59 25 2.0 0.0 158.85 0.00 0.00 64 1011.6
20260510082751 59 0 5.0 0.0 158.85 0.00 0.00 63 1011.5
20260510082509 60 24 1.0 0.0 158.85 0.00 0.00 64 1011.5
20260510082251 60 24 1.0 0.0 158.85 0.00 0.00 64 1011.5
20260510081751 60 346 5.0 0.0 158.85 0.00 0.00 63 1011.4
20260510081510 60 294 6.0 0.0 158.85 0.00 0.00 64 1011.2
20260510081251 60 294 6.0 0.0 158.85 0.00 0.00 64 1011.2
20260510080751 60 346 3.0 0.0 158.85 0.00 0.00 63 1011.3
20260510075751 60 65 4.0 0.0 158.85 0.00 0.00 64 1011.2
20260510075508 60 18 3.0 0.0 158.85 0.00 0.00 64 1011.2
20260510075251 60 18 3.0 0.0 158.85 0.00 0.00 64 1011.2
20260510074751 60 15 1.0 0.0 158.85 0.00 0.00 64 1011.1
20260510074251 60 13 3.0 0.0 158.85 0.00 0.00 64 1011.1
20260510073251 61 294 3.0 0.0 158.85 0.00 0.00 66 1011.1
20260510072751 61 24 6.0 0.0 158.85 0.00 0.00 68 1011.0
20260510072252 61 336 3.0 0.0 158.85 0.00 0.00 69 1010.9
20260510071751 61 359 4.0 0.0 158.85 0.00 0.00 70 1011.1
20260510071251 61 28 2.0 0.0 158.85 0.00 0.00 71 1011.1
20260510070751 61 10 1.0 0.0 158.85 0.00 0.00 71 1011.2
20260510070251 61 249 4.0 0.0 158.85 0.00 0.00 70 1011.1
20260510070015 61 23 0.0 0.0 158.85 0.00 0.00 70 1011.0
20260510065751 61 23 0.0 0.0 158.85 0.00 0.00 70 1011.0
20260510065251 62 266 0.0 0.0 158.85 0.00 0.00 69 1010.9
20260510064751 62 271 1.0 0.0 158.85 0.00 0.00 69 1010.9
20260510064251 62 316 0.0 0.0 158.85 0.00 0.00 68 1010.8
20260510064015 62 316 0.0 0.0 158.85 0.00 0.00 67 1010.9
20260510063751 62 316 0.0 0.0 158.85 0.00 0.00 67 1010.9
20260510062753 62 263 2.0 0.0 158.85 0.00 0.00 67 1010.9
20260510062251 63 14 2.0 0.0 158.85 0.00 0.00 67 1010.9
20260510062014 63 304 1.0 0.0 158.85 0.00 0.00 66 1010.8
20260510061751 63 304 1.0 0.0 158.85 0.00 0.00 66 1010.8
20260510061251 63 278 1.0 0.0 158.85 0.00 0.00 66 1010.8
20260510060751 63 311 1.0 0.0 158.85 0.00 0.00 66 1010.8
20260510060251 64 281 6.0 0.0 158.85 0.00 0.00 66 1010.8
20260510060013 64 256 3.0 0.0 158.85 0.00 0.00 65 1010.8
20260510055751 64 256 3.0 0.0 158.85 0.00 0.00 65 1010.8
20260510055510 64 217 1.0 0.0 158.85 0.00 0.00 65 1010.7
20260510055251 64 217 1.0 0.0 158.85 0.00 0.00 65 1010.7
20260510054751 64 256 7.0 0.0 158.85 0.00 0.00 65 1010.7
20260510054251 64 323 9.0 0.0 158.85 0.00 0.00 65 1010.8
20260510053751 64 305 2.0 0.0 158.85 0.00 0.00 65 1010.8
20260510053252 64 281 3.0 0.0 158.85 0.00 0.00 65 1010.7
20260510052751 64 290 2.0 0.0 158.85 0.00 0.00 65 1010.6
20260510052251 64 333 5.0 0.0 158.85 0.00 0.00 66 1010.5
20260510051751 64 31 1.0 0.0 158.85 0.00 0.00 66 1010.5
20260510051251 64 236 3.0 0.0 158.85 0.00 0.00 67 1010.4
20260510050751 64 290 4.0 0.0 158.85 0.00 0.00 67 1010.4
20260510050251 64 150 1.0 0.0 158.85 0.00 0.00 67 1010.3
20260510045751 64 305 1.0 0.0 158.85 0.00 0.00 67 1010.3
20260510045251 64 291 5.0 0.0 158.85 0.00 0.00 67 1010.2
20260510044751 64 221 2.0 0.0 158.85 0.00 0.00 67 1010.1
20260510044251 64 284 3.0 0.0 158.85 0.00 0.00 66 1010.1
20260510042751 64 266 3.0 0.0 158.85 0.00 0.03 66 1009.9
20260510042250 64 285 3.0 0.0 158.85 0.00 0.03 66 1010.0
20260510041750 64 243 4.0 0.0 158.85 0.00 0.03 66 1009.8
20260510041251 63 260 3.0 0.0 158.85 0.00 0.03 66 1009.6
20260510040751 63 329 3.0 0.0 158.85 0.00 0.03 66 1009.6
20260510040254 63 210 3.0 0.0 158.85 0.00 0.03 66 1009.7
20260510035751 63 300 1.0 0.0 158.85 0.00 0.03 66 1009.7
20260510035252 63 242 2.0 0.0 158.85 0.00 0.03 66 1009.7
20260510034751 64 269 4.0 0.0 158.85 0.00 0.03 66 1009.7
20260510034251 64 246 1.0 0.0 158.85 0.00 0.03 65 1009.6
20260510033751 64 290 2.0 0.0 158.85 0.00 0.03 65 1009.5
20260510033251 64 323 1.0 0.0 158.85 0.00 0.03 65 1009.3
20260510032754 64 207 1.0 0.0 158.85 0.00 0.03 65 1009.5
20260510032251 64 252 1.0 0.0 158.85 0.00 0.03 65 1009.3
20260510031750 64 278 1.0 0.0 158.85 0.00 0.03 65 1009.2
20260510030751 64 259 1.0 0.0 158.85 0.00 0.03 64 1009.2
20260510025250 64 172 0.0 0.0 158.85 0.00 0.03 64 1009.2
20260510024752 64 278 1.0 0.0 158.85 0.00 0.03 64 1009.2
20260510022751 65 304 0.0 0.0 158.85 0.00 0.03 62 1009.2
20260510012752 68 264 0.0 0.0 158.85 0.00 0.03 56 1008.2
20260510005752 69 235 0.0 0.0 158.85 0.00 0.03 53 1007.9
20260510004751 70 252 1.0 0.0 158.85 0.00 0.03 53 1007.9
20260510004253 70 311 1.0 0.0 158.85 0.00 0.03 52 1007.7
20260510003751 70 240 0.0 0.0 158.85 0.00 0.03 51 1007.6
20260510003251 70 271 4.0 0.0 158.85 0.00 0.03 51 1007.7
20260510002752 71 301 3.0 0.0 158.85 0.00 0.03 51 1007.7
20260510000751 72 276 1.0 0.0 158.85 0.00 0.03 49 1007.5
20260510000251 72 215 3.0 0.0 158.85 0.00 0.03 48 1007.4
20260509235250 72 225 0.0 0.0 158.85 0.00 0.03 47 1007.3
20260509234750 73 295 4.0 0.0 158.85 0.00 0.03 46 1007.2
20260509234437 73 308 3.0 0.0 158.85 0.00 0.03 45 1007.1
20260509234251 73 308 3.0 0.0 158.85 0.00 0.03 45 1007.1
20260509233751 73 288 2.0 0.0 158.85 0.00 0.03 44 1007.2
20260509233250 74 260 2.0 0.0 158.85 0.00 0.03 44 1007.1
20260509232834 74 212 2.0 0.0 158.85 0.00 0.03 43 1007.1
20260509232751 74 291 7.0 0.0 158.85 0.00 0.03 43 1007.1
20260509232250 74 212 2.0 0.0 158.85 0.00 0.03 43 1007.1
20260509231824 75 114 5.0 0.0 158.85 0.00 0.03 42 1007.1
20260509231750 74 239 5.0 0.0 158.85 0.00 0.03 42 1007.1
20260509231251 74 11 3.0 0.0 158.85 0.00 0.03 42 1007.1
20260509230750 75 114 5.0 0.0 158.85 0.00 0.03 42 1007.1
20260509230250 75 218 4.0 0.0 158.85 0.00 0.03 41 1007.1
20260509225751 76 293 4.0 0.0 158.85 0.00 0.03 39 1007.1
20260509225250 77 267 9.0 0.0 158.85 0.00 0.03 41 1007.0
20260509224750 77 295 6.0 0.0 158.85 0.00 0.03 42 1007.0
20260509223541 77 290 4.0 0.0 158.85 0.00 0.03 43 1006.8
20260509223250 77 290 4.0 0.0 158.85 0.00 0.03 43 1006.8
20260509222752 77 238 3.0 0.0 158.85 0.00 0.03 42 1006.8
20260509222706 77 255 6.0 0.0 158.85 0.00 0.03 42 1006.9
20260509222250 77 255 6.0 0.0 158.85 0.00 0.03 42 1006.9
20260509221752 77 300 4.0 0.0 158.85 0.00 0.03 41 1006.9
20260509221251 77 246 7.0 0.0 158.85 0.00 0.03 40 1006.7
20260509220750 78 94 5.0 0.0 158.85 0.00 0.03 39 1006.7
20260509220251 78 321 5.0 0.0 158.85 0.00 0.03 41 1006.7
20260509215750 78 239 8.0 0.0 158.85 0.00 0.03 40 1006.8
20260509215250 78 266 5.0 0.0 158.85 0.00 0.03 41 1006.7
20260509214750 78 250 3.0 0.0 158.85 0.00 0.03 39 1006.7
20260509214250 77 173 6.0 0.0 158.85 0.00 0.03 41 1006.7
20260509213750 77 235 4.0 0.0 158.85 0.00 0.03 39 1006.8
20260509213250 78 264 4.0 0.0 158.85 0.00 0.03 42 1006.8
20260509212750 78 163 6.0 0.0 158.85 0.00 0.03 42 1006.8
20260509212400 78 277 5.0 0.0 158.85 0.00 0.03 43 1006.9
20260509212250 78 277 5.0 0.0 158.85 0.00 0.03 43 1006.9
20260509211750 77 195 3.0 0.0 158.85 0.00 0.03 41 1007.0
20260509211250 78 163 9.0 0.0 158.85 0.00 0.03 42 1007.1
20260509210750 78 262 4.0 0.0 158.85 0.00 0.03 42 1007.1
20260509205752 77 329 3.0 0.0 158.85 0.00 0.03 44 1007.1
20260509204750 77 301 3.0 0.0 158.85 0.00 0.03 44 1007.1
20260509204250 77 166 5.0 0.0 158.85 0.00 0.03 43 1007.0
20260509202504 77 79 1.0 0.0 158.85 0.00 0.03 43 1007.2
20260509201750 77 79 1.0 0.0 158.85 0.00 0.03 43 1007.2
20260509201250 77 188 5.0 0.0 158.85 0.00 0.03 44 1007.3
20260509200753 77 285 6.0 0.0 158.85 0.00 0.03 44 1007.5
20260509200251 77 35 3.0 0.0 158.85 0.00 0.03 44 1007.5
20260509195750 77 191 8.0 0.0 158.85 0.00 0.03 44 1007.7
20260509194750 77 118 2.0 0.0 158.85 0.00 0.03 46 1007.7
20260509193750 76 252 9.0 0.0 158.85 0.00 0.03 44 1007.7
20260509192751 76 170 5.0 0.0 158.85 0.00 0.03 44 1007.8
20260509192250 75 166 4.0 0.0 158.85 0.00 0.03 45 1007.8
20260509192026 75 224 6.0 0.0 158.85 0.00 0.03 47 1007.8
20260509191750 75 224 6.0 0.0 158.85 0.00 0.03 47 1007.8
20260509191251 75 278 7.0 0.0 158.85 0.00 0.03 47 1007.9
20260509190750 74 172 3.0 0.0 158.85 0.00 0.03 51 1007.8
20260509190250 74 170 3.0 0.0 158.85 0.00 0.03 49 1007.9
20260509185250 74 284 3.0 0.0 158.85 0.00 0.03 52 1008.0
20260509184750 73 167 8.0 0.0 158.85 0.00 0.03 52 1008.0
20260509184250 73 165 8.0 0.0 158.85 0.00 0.03 52 1008.1
20260509183750 72 266 5.0 0.0 158.85 0.00 0.03 52 1008.1
20260509183252 73 205 9.0 0.0 158.85 0.00 0.03 51 1008.1
20260509182750 73 267 4.0 0.0 158.85 0.00 0.03 51 1008.2
20260509182250 72 333 3.0 0.0 158.85 0.00 0.03 53 1008.2
20260509181751 72 190 9.0 0.0 158.85 0.00 0.03 52 1008.3
20260509181252 71 195 4.0 0.0 158.85 0.00 0.03 53 1008.1
20260509180251 71 274 3.0 0.0 158.85 0.00 0.03 54 1008.2
20260509180013 69 181 3.0 0.0 158.85 0.00 0.03 59 1008.4
20260509175750 71 293 2.0 0.0 158.85 0.00 0.03 57 1008.4
20260509175251 70 211 2.0 0.0 158.85 0.00 0.03 57 1008.4
20260509174750 69 181 3.0 0.0 158.85 0.00 0.03 59 1008.4
20260509173828 69 291 9.0 0.0 158.85 0.00 0.03 58 1008.6
20260509173750 69 291 9.0 0.0 158.85 0.00 0.03 58 1008.6
20260509173251 68 210 8.0 0.0 158.85 0.00 0.03 61 1008.6
20260509172750 68 181 3.0 0.0 158.85 0.00 0.03 65 1008.6
20260509172250 67 200 3.0 0.0 158.85 0.00 0.03 63 1008.7
20260509171250 67 235 3.0 0.0 158.85 0.00 0.03 61 1008.7